Terminal Aerodrome Forecast
Issued by NWS Buffalo, NY

Home | Current Version | Previous Version | Text Only | Print | Product List | Glossary On
Versions: 1 2 3 4 5 6 7 8 9 10 11 12 13 14 15 16 17 18 19 20 21 22 23 24 25
000
FTUS41 KBUF 270900 AAA
TAFART
TAF AMD
KART 270916Z 2709/2806 05012KT P6SM SKC
     FM280200 01013KT P6SM OVC200=

USA.gov is the U.S. government's official web portal to all federal, state and local government web resources and services.